Weather History for KMCB - April, 2013

Change the Weather History Date:

Thursday, April 11, 2013

  Actual Average Record
Temperature  
Mean Temperature 62 °F -  
Max Temperature 77 °F 75 °F 89 °F (1963)
Min Temperature 48 °F 51 °F 30 °F (1973)
Degree Days  
Heating Degree Days 4    
Growing Degree Days 12 (Base 50)    
Moisture  
Dew Point 57 °F    
Average Humidity 90    
Maximum Humidity 100    
Minimum Humidity 77    
Precipitation  
Precipitation 0.15 in - - ()
Sea Level Pressure  
Sea Level Pressure 29.74 in    
Wind  
Wind Speed 13 mph (NW)    
Max Wind Speed 21 mph    
Max Gust Speed 29 mph    
Visibility 8 miles    
Events Rain , Thunderstorm    
Averages and records for this station are not official NWS values.
T = Trace of Precipitation, MM = Missing Value Source: NWS Daily Summary

Daily Weather History Graph

Daily Weather History Graph

Search for Another Location

Airport or City:

Trip Planner

Search our weather history database for the weather conditions in past years. The results will help you decide how hot, cold, wet, or windy it might be!

Date:

Astronomy

Apr. 11, 2013 Rise Set
Actual Time 6:38 AM CDT 7:27 PM CDT
Civil Twilight 6:13 AM CDT 7:52 PM CDT
Nautical Twilight 5:44 AM CDT 8:21 PM CDT
Astronomical Twilight 5:14 AM CDT 8:51 PM CDT
Moon 7:15 AM CDT (4/11) 8:55 PM CDT (4/11)
Length of Visible Light 13h 39m
Length of Day
12h 49m
New Moon, 2% of the Moon is Illuminated
Apr 11
New Moon
Apr 18
First Quarter
Apr 25
Full
May 2
Last Quarter
May 9
New

Hourly Weather History & Observations

Time (CDT) Temp. Dew Point Humidity Pressure Visibility Wind Dir Wind Speed Gust Speed Precip Events Conditions
12:53 AM 71.1 °F 69.1 °F 93% 29.79 in 9.0 mi SSE 11.5 mph 17.3 mph N/A   Overcast
1:53 AM 72.0 °F 69.1 °F 91% 29.77 in 9.0 mi SSE 10.4 mph - N/A   Overcast
2:53 AM 72.0 °F 69.1 °F 91% 29.75 in 10.0 mi South 13.8 mph - N/A   Overcast
3:53 AM 72.0 °F 69.1 °F 91% 29.73 in 10.0 mi South 9.2 mph - N/A   Overcast
4:53 AM 72.0 °F 69.1 °F 91% 29.72 in 10.0 mi South 10.4 mph - N/A   Overcast
5:53 AM 72.0 °F 69.1 °F 91% 29.72 in 10.0 mi SSE 12.7 mph - N/A   Overcast
6:53 AM 71.1 °F 69.1 °F 93% 29.71 in 7.0 mi South 9.2 mph - N/A   Overcast
7:53 AM 72.0 °F 70.0 °F 93% 29.70 in 8.0 mi SSE 12.7 mph - N/A   Overcast
8:53 AM 73.0 °F 70.0 °F 90% 29.69 in 10.0 mi South 15.0 mph 23.0 mph N/A   Overcast
9:53 AM 75.9 °F 70.0 °F 82% 29.69 in 10.0 mi South 19.6 mph 28.8 mph N/A   Mostly Cloudy
10:27 AM 64.4 °F 59.0 °F 83% 29.72 in 10.0 mi WNW 20.7 mph 27.6 mph N/A   Overcast
10:37 AM 60.8 °F 55.4 °F 82% 29.73 in 10.0 mi NW 15.0 mph - N/A   Overcast
10:39 AM 60.8 °F 55.4 °F 82% 29.73 in 10.0 mi NNW 17.3 mph 23.0 mph N/A   Overcast
10:53 AM 57.0 °F 55.0 °F 93% 29.72 in 4.0 mi NW 20.7 mph 27.6 mph 0.04 in Rain Rain
11:07 AM 55.4 °F 55.4 °F 100% 29.74 in 2.5 mi NNW 16.1 mph 23.0 mph 0.08 in Rain Heavy Rain
11:15 AM 55.4 °F 55.4 °F 100% 29.74 in 1.8 mi NNW 16.1 mph 24.2 mph 0.15 in Rain Heavy Rain
11:19 AM 55.4 °F 53.6 °F 94% 29.74 in 1.2 mi NNW 16.1 mph - 0.24 in Rain , Thunderstorm Heavy Rain
11:23 AM 55.4 °F 53.6 °F 94% 29.75 in 0.8 mi NW 17.3 mph - 0.32 in Rain , Thunderstorm Heavy Rain
11:30 AM 55.4 °F 53.6 °F 94% 29.77 in 1.5 mi NW 17.3 mph - 0.35 in Rain , Thunderstorm Rain
11:35 AM 55.4 °F 55.4 °F 100% 29.76 in 3.0 mi NW 15.0 mph - 0.38 in Rain , Thunderstorm Thunderstorms and Rain
11:45 AM 55.4 °F 55.4 °F 100% 29.75 in 1.8 mi NNW 12.7 mph 23.0 mph 0.47 in Rain , Thunderstorm Heavy Thunderstorms and Rain
11:59 AM 55.4 °F 55.4 °F 100% 29.75 in 3.0 mi WNW 10.4 mph 20.7 mph 0.02 in Rain , Thunderstorm Heavy Rain
12:13 PM 57.2 °F 55.4 °F 94% 29.75 in 10.0 mi NNW 12.7 mph - 0.02 in Rain , Thunderstorm Light Rain
12:29 PM 55.4 °F 55.4 °F 100% 29.73 in 6.0 mi NNW 15.0 mph 25.3 mph 0.04 in Rain Light Rain
12:53 PM 55.9 °F 54.0 °F 93% 29.72 in 9.0 mi NNW 18.4 mph 25.3 mph 0.06 in Rain Light Rain
1:07 PM 57.2 °F 55.4 °F 94% 29.74 in 7.0 mi NW 17.3 mph 27.6 mph 0.03 in Rain Light Rain
1:29 PM 55.4 °F 55.4 °F 100% 29.73 in 8.0 mi NNW 13.8 mph 24.2 mph 0.05 in Rain Light Rain
1:53 PM 57.0 °F 54.0 °F 89% 29.70 in 10.0 mi North 12.7 mph 21.9 mph 0.05 in   Overcast
2:53 PM 60.1 °F 55.0 °F 83% 29.66 in 10.0 mi ENE 6.9 mph - N/A   Mostly Cloudy
3:12 PM 60.8 °F 55.4 °F 82% 29.68 in 10.0 mi Calm Calm - N/A   Mostly Cloudy
3:40 PM 62.6 °F 55.4 °F 77% 29.71 in 10.0 mi NW 10.4 mph - N/A   Overcast
3:53 PM 62.1 °F 55.9 °F 80% 29.72 in 10.0 mi WNW 6.9 mph - N/A   Overcast
4:53 PM 60.1 °F 53.1 °F 78% 29.74 in 10.0 mi WNW 12.7 mph - N/A   Overcast
5:53 PM 59.0 °F 53.1 °F 81% 29.75 in 10.0 mi NW 13.8 mph - N/A   Overcast
6:53 PM 57.0 °F 50.0 °F 77% 29.75 in 10.0 mi NNW 10.4 mph - N/A   Mostly Cloudy
7:04 PM 55.4 °F 51.8 °F 88% 29.76 in 10.0 mi NW 8.1 mph - N/A   Scattered Clouds
7:53 PM 54.0 °F 50.0 °F 86% 29.76 in 10.0 mi NNW 5.8 mph - N/A   Clear
8:53 PM 52.0 °F 48.9 °F 89% 29.77 in 10.0 mi NW 4.6 mph - N/A   Clear
9:53 PM 50.0 °F 48.0 °F 93% 29.82 in 10.0 mi NNW 4.6 mph - N/A   Clear
10:53 PM 48.9 °F 46.9 °F 93% 29.86 in 10.0 mi WNW 4.6 mph - N/A   Clear
11:53 PM 48.0 °F 46.9 °F 96% 29.85 in 10.0 mi NNW 6.9 mph - N/A   Clear